Theta_e
309 308 308 307 306 307 305 305 305 306 305 305 307 308 308 310 313 311 311 312 313 311 311 311 312 311 312 312 313 314 314 314 315 314 313 315 313 312 312 311 311 312
309 311 316 309 311 313 308 306 306 306 306 305 306 307 307 311 310 311 310 310 310 309 310 309 310 310 310 310 310 311 311 311 310 314 314 311 311 311 311 311 311 312
308 310 311 308 308 308 307 307 307 306 306 306 306 307 308 312 309 309 310 308 308 307 307 307 307 308 308 309 309 309 308 308 308 309 311 309 310 310 310 311 311 312
308 310 311 308 307 307 307 309 308 308 308 307 307 308 311 313 307 307 309 311 306 306 306 306 307 307 307 307 308 308 308 307 308 309 308 308 310 310 310 311 311 310
308 308 309 308 307 308 308 307 307 305 306 306 305 310 312 307 306 306 306 305 305 305 305 305 305 306 307 307 307 307 308 307 307 307 307 307 307 308 309 309 308 307
309 309 310 308 308 308 307 307 306 306 306 306 304 311 306 306 305 305 305 304 304 304 304 304 304 305 306 306 306 306 306 305 305 306 305 305 305 306 307 307 306 305
309 308 308 308 308 307 307 306 306 309 305 305 308 306 305 304 304 304 304 304 304 306 303 303 303 303 305 305 306 305 305 305 304 304 303 303 304 304 304 305 304 303
309 308 308 308 308 307 308 306 305 306 306 307 304 306 304 304 303 304 303 303 302 302 302 302 302 303 303 304 305 303 303 304 303 302 302 301 302 301 301 303 303 301
308 308 307 307 307 306 307 306 305 304 308 304 304 304 304 303 303 302 302 302 302 301 301 301 302 302 302 303 303 302 301 301 302 301 301 300 300 300 299 301 300 300
308 308 307 307 307 306 306 305 304 305 308 303 303 303 303 304 302 301 301 301 301 301 301 301 301 301 301 302 302 301 301 300 300 300 300 299 299 299 298 299 299 298
308 307 307 307 307 306 306 304 304 305 307 303 303 302 302 303 304 301 300 300 300 300 300 300 300 300 300 301 301 301 300 300 300 299 299 298 298 298 299 298 298 297
308 307 307 307 307 306 305 304 304 305 304 303 303 302 301 301 301 302 301 300 300 300 300 300 300 300 299 300 300 301 300 300 299 299 298 298 297 297 297 298 297 297
308 308 308 307 307 306 305 304 304 303 302 302 303 301 300 300 300 302 303 299 300 299 299 299 299 300 299 299 299 298 298 298 297 297 297 297 297 296 296 297 297 297
309 309 308 307 307 305 303 303 302 301 301 302 302 300 300 299 299 299 303 300 300 300 300 302 300 298 298 298 299 298 297 297 296 296 296 295 295 295 296 296 296 296
310 309 309 308 307 303 302 301 301 301 301 301 301 301 302 299 299 299 298 298 298 297 297 298 299 299 300 298 297 296 296 295 295 294 294 294 294 294 295 294 294 295
310 309 308 306 304 302 301 301 300 300 300 300 300 300 300 300 299 299 298 298 297 297 297 298 299 301 300 297 297 297 295 294 294 294 293 293 293 293 293 293 294 294
308 308 307 305 303 301 300 300 300 300 300 299 299 299 299 301 298 298 298 298 297 296 296 297 299 299 295 292 292 294 295 294 293 292 293 292 292 291 291 292 293 293
308 307 306 304 302 300 300 300 300 299 298 298 298 298 299 301 297 296 296 295 297 296 295 298 299 296 292 292 292 292 293 294 292 292 292 292 291 291 292 292 292 293
307 306 304 302 300 300 300 300 299 298 298 297 297 298 298 297 296 296 296 295 296 296 298 299 296 294 292 292 291 291 291 292 292 292 291 291 291 291 292 292 293 293
307 305 303 301 299 299 299 299 298 297 297 297 298 298 296 295 295 295 295 294 295 296 297 296 295 294 291 291 291 290 290 291 292 291 291 291 291 291 292 292 293 293
305 303 301 299 299 299 299 298 297 297 296 297 297 296 295 295 295 295 294 297 297 295 296 294 296 292 291 291 290 290 290 292 291 291 291 291 292 292 292 292 293 294
302 301 300 299 299 298 298 297 296 296 296 296 296 294 294 294 293 293 295 294 295 294 293 291 292 291 290 290 290 290 291 292 290 290 291 292 292 292 293 293 294 294
302 301 300 299 298 297 297 296 296 295 295 297 295 293 293 293 292 294 294 293 295 294 291 290 291 291 290 290 290 290 291 290 290 290 291 291 292 293 293 294 294 297
301 301 300 299 298 297 297 296 296 296 295 298 294 293 293 292 292 293 292 293 292 290 290 289 290 291 290 290 290 289 291 289 289 289 289 290 291 292 293 294 295 298
302 301 300 300 299 298 297 296 295 296 295 297 293 294 293 292 294 292 291 291 292 293 296 290 289 291 290 289 290 289 291 290 289 288 288 289 289 290 293 293 294 294
303 304 302 299 298 298 297 296 296 295 294 295 292 292 291 289 293 291 291 291 292 293 294 290 290 290 292 289 290 290 289 290 288 288 288 288 288 291 292 292 293 292
Wind_Speed
6 6 6 5 5 4 5 4 3 2 2 2 1 0 1 2 4 4 4 4 4 5 4 5 5 5 4 4 4 3 3 3 3 3 4 3 4 3 3 4 3 3
6 6 5 4 4 2 3 3 4 4 3 3 3 1 1 2 3 3 4 5 4 5 4 4 4 4 4 4 4 4 3 3 4 3 3 3 3 3 4 3 3 3
5 5 6 6 5 4 4 3 3 4 3 2 2 2 3 2 3 3 4 5 5 4 5 4 4 4 4 4 3 3 3 3 4 4 2 2 3 3 3 3 2 3
5 6 6 5 5 5 4 4 3 3 2 1 2 1 2 2 4 4 4 4 5 5 4 4 4 4 4 4 3 3 3 3 2 2 4 4 4 3 3 3 3 3
7 5 4 5 4 4 5 4 4 4 4 2 2 2 3 3 4 4 4 4 5 4 4 4 3 3 3 3 2 3 3 3 3 3 4 4 3 3 2 2 2 2
4 5 5 5 5 6 5 5 4 4 4 2 3 3 5 3 4 5 5 5 4 4 4 3 3 3 3 2 2 2 2 3 3 3 3 3 2 2 2 2 2 2
6 5 5 4 5 5 6 5 4 4 3 3 3 4 5 5 4 5 5 5 5 4 4 3 3 2 2 2 2 2 3 3 3 4 4 3 3 3 4 3 3 3
5 5 5 5 5 5 5 5 5 4 3 5 5 4 5 5 5 4 5 5 5 4 3 2 1 1 2 1 2 2 3 2 3 3 3 3 3 3 3 2 3 3
4 5 5 5 6 6 6 5 4 4 4 5 5 5 4 5 5 5 5 5 5 4 2 1 1 1 2 1 3 3 3 2 2 2 2 2 2 3 3 3 3 3
5 4 5 5 6 6 6 5 4 4 4 5 6 5 6 4 5 6 5 5 5 3 2 0 2 3 2 1 2 2 2 1 1 1 2 2 3 3 4 4 4 5
4 4 5 5 6 5 6 5 5 5 5 6 6 6 6 6 4 4 5 5 4 3 1 1 3 3 3 1 1 1 1 1 2 2 3 3 3 4 6 5 5 6
4 5 6 7 7 6 6 5 5 6 6 5 7 7 6 5 6 4 4 5 4 2 1 2 3 3 3 3 1 0 0 1 2 3 3 3 4 4 4 5 6 7
6 6 7 7 7 7 4 5 6 6 7 7 6 7 7 6 5 5 3 4 3 1 1 2 3 3 2 1 2 2 1 2 3 3 3 3 4 5 5 5 6 6
6 5 6 7 6 4 5 5 6 6 7 6 6 7 6 6 6 5 3 3 1 2 2 2 2 2 2 3 1 1 2 2 2 2 4 4 5 5 6 6 7 7
7 6 4 5 4 5 6 6 6 7 7 7 6 6 5 5 5 5 4 1 1 2 3 2 1 1 2 2 3 2 1 2 2 3 4 5 4 4 5 6 7 6
7 5 5 4 4 6 6 7 7 7 7 7 6 6 5 5 5 3 3 2 2 3 3 2 2 2 5 6 4 2 1 1 2 3 4 4 5 5 5 5 5 5
6 6 5 7 6 6 6 7 8 7 7 6 6 6 5 4 4 4 3 2 3 3 4 3 1 3 6 5 4 5 3 2 3 3 4 4 5 5 5 5 5 5
6 5 6 6 5 6 7 7 7 7 7 6 6 5 4 3 4 4 3 3 3 2 2 1 2 5 6 4 4 4 5 4 3 3 4 4 4 4 4 4 5 5
7 7 6 7 7 7 7 7 8 7 7 7 7 5 4 5 5 4 4 3 2 3 2 0 3 4 4 4 3 4 5 6 3 4 4 4 4 4 4 4 4 4
8 7 7 7 7 7 7 8 8 8 7 6 5 5 5 5 5 5 4 3 3 3 2 1 3 4 4 3 3 5 6 6 3 3 3 3 4 4 4 4 4 4
6 6 7 8 8 9 8 8 8 7 7 6 6 7 7 6 6 5 4 4 3 3 3 3 3 4 3 2 4 5 7 4 3 3 3 4 3 4 4 4 4 4
8 8 8 8 9 8 8 8 8 8 8 6 5 5 4 4 3 3 5 5 5 4 4 4 2 3 3 2 4 5 6 3 3 4 4 4 4 3 4 4 3 4
8 9 8 7 7 8 8 8 8 7 6 6 6 6 6 5 6 5 5 6 5 4 5 4 4 3 2 1 2 5 4 3 3 3 3 4 4 4 4 4 5 1
7 8 9 9 8 9 9 8 7 6 7 7 8 7 7 6 5 5 5 5 6 6 5 6 4 4 3 1 1 3 3 3 3 3 3 3 4 4 3 4 5 8
7 5 6 7 10 10 9 9 9 8 6 6 6 6 6 5 4 6 5 4 5 5 7 7 5 5 4 1 0 2 2 1 2 2 3 3 3 4 4 3 4 5
10 10 9 9 10 8 7 8 7 6 7 7 6 6 6 6 5 6 7 5 3 4 5 5 5 4 3 3 1 1 3 2 1 2 3 4 3 3 4 4 4 4
Wind_Direction
140 137 141 141 162 163 155 157 178 157 198 185 158 242 250 292 7 27 41 50 52 50 36 34 29 32 26 28 16 1 328 295 294 305 306 326 334 322 315 308 305 279
152 149 138 135 136 149 153 158 160 171 187 180 207 219 258 54 29 75 84 81 68 60 56 54 51 49 42 37 22 14 359 335 315 303 268 240 259 243 239 255 287 290
148 143 138 151 163 176 176 170 163 189 164 192 212 219 57 91 105 87 103 103 89 75 60 53 53 39 36 41 51 60 44 13 347 335 324 328 316 313 321 312 356 359
164 162 161 166 159 164 159 146 183 161 157 168 228 91 130 129 120 121 95 87 87 74 63 55 48 32 24 15 17 44 55 62 12 7 46 43 28 40 32 32 34 26
171 171 168 165 171 148 147 154 181 181 180 215 57 148 134 134 131 102 97 85 87 83 68 63 49 34 22 20 22 41 26 29 13 44 76 69 30 32 35 48 43 36
176 175 171 172 171 155 159 175 193 178 193 215 185 151 142 130 112 114 111 105 95 93 81 67 50 16 11 14 20 42 24 24 8 9 35 42 35 20 15 20 28 20
182 171 178 176 167 167 167 188 188 184 171 166 138 137 135 122 124 125 117 111 106 101 108 104 78 3 345 4 33 35 23 32 11 17 26 15 10 13 357 357 6 339
190 185 177 173 174 177 178 186 186 187 152 145 142 145 131 138 136 126 122 119 115 117 116 103 169 329 321 19 74 57 40 31 29 25 27 9 6 2 346 342 327 320
185 185 177 182 181 182 188 189 188 159 156 142 140 128 127 133 137 129 127 126 120 133 145 182 286 301 319 50 81 79 72 45 27 38 17 356 350 327 322 313 309 306
194 186 181 190 191 192 190 193 165 154 135 138 136 133 127 120 129 134 129 127 129 124 167 263 303 313 345 23 117 119 113 78 16 357 329 317 308 311 302 301 302 295
197 184 195 202 205 195 198 177 161 140 140 140 137 131 133 131 126 131 125 136 136 155 183 259 271 298 315 276 233 141 111 2 314 322 320 310 304 301 313 309 297 290
204 190 206 205 205 201 200 174 150 141 143 147 143 136 135 140 141 150 149 145 151 176 201 259 291 281 249 237 285 290 230 304 329 329 325 317 305 294 289 290 291 292
199 206 209 209 203 200 179 149 146 144 146 149 147 136 139 143 148 147 155 145 167 192 239 265 296 295 255 175 221 241 308 353 343 334 312 306 305 300 295 289 286 287
198 206 231 223 203 174 153 148 140 142 144 142 135 138 143 151 160 158 160 137 192 219 272 302 313 335 181 196 173 72 41 8 338 319 313 300 295 296 302 306 307 306
195 201 208 233 196 153 147 148 146 142 142 143 141 142 149 157 160 151 137 167 334 343 323 333 297 278 173 132 107 77 77 11 337 314 302 301 302 309 311 314 313 315
204 188 183 190 195 166 157 150 145 146 144 144 145 147 151 153 143 132 134 181 272 323 331 329 324 347 78 73 55 73 105 3 309 303 305 309 320 326 322 313 315 315
182 190 168 190 196 161 150 148 148 146 145 143 145 149 156 161 136 151 206 220 238 271 300 321 22 88 100 95 72 31 26 354 326 318 323 325 328 325 320 328 326 319
171 178 181 187 180 167 155 152 144 145 148 149 149 159 168 139 145 182 218 245 256 273 265 273 122 96 101 90 58 29 7 347 329 335 331 331 327 318 315 319 319 316
177 185 186 175 181 159 152 149 149 150 152 153 171 177 148 160 187 180 221 222 208 268 286 40 119 115 106 86 45 11 350 346 342 335 328 327 313 309 309 310 314 318
180 178 175 174 161 154 153 154 157 165 168 169 159 155 162 174 179 197 203 215 213 205 173 127 109 116 102 67 19 350 347 344 340 324 320 307 309 309 304 305 308 313
167 169 170 162 163 160 161 162 165 162 167 173 168 170 169 177 188 195 212 195 186 150 122 92 107 116 101 45 353 346 339 333 339 326 320 315 305 301 293 293 297 296
171 171 168 168 165 162 160 166 169 172 175 178 166 169 173 160 151 151 171 178 171 131 124 126 139 129 96 18 343 338 332 341 333 331 327 320 313 306 310 300 296 295
171 164 163 157 147 156 170 172 174 180 181 169 160 172 171 184 186 192 183 166 162 156 139 145 155 156 127 14 333 334 327 337 332 326 326 318 321 326 322 325 312 333
160 150 153 152 171 186 185 182 178 173 175 174 168 171 183 195 183 172 175 159 157 164 160 150 172 177 156 322 337 327 330 331 321 326 320 324 320 321 321 334 339 0
134 142 156 183 190 193 184 177 180 181 178 167 170 169 177 163 165 163 161 165 171 160 156 147 174 181 167 202 180 325 340 335 326 333 318 323 332 324 328 347 348 358
178 183 191 191 196 190 182 180 167 158 164 168 172 172 163 169 171 165 160 164 158 141 141 152 168 204 184 182 176 341 356 354 354 336 330 320 321 329 340 341 343 349